Weather reports worldwide

Advertisment
Leconfield, United Kingdom (3382): temperature & dewpoint: 11.11.2018 03:00:00 - 17.11.2018 03:00:00 (GMT)Leconfield, United Kingdom (3382): temperature -20cm & temperature -100cm: 11.11.2018 03:00:00 - 17.11.2018 03:00:00 (GMT)Leconfield, United Kingdom (3382): wind speed & gusts: 11.11.2018 03:00:00 - 17.11.2018 03:00:00 (GMT)Leconfield, United Kingdom (3382): wind direction: 11.11.2018 03:00:00 - 17.11.2018 03:00:00 (GMT)Leconfield, United Kingdom (3382): reduced air pressure: 11.11.2018 03:00:00 - 17.11.2018 03:00:00 (GMT)Leconfield, United Kingdom (3382): visibility: 11.11.2018 03:00:00 - 17.11.2018 03:00:00 (GMT)Leconfield, United Kingdom (3382): sunshine duration: 11.11.2018 03:00:00 - 17.11.2018 03:00:00 (GMT)Leconfield, United Kingdom (3382): precipitation: 11.11.2018 03:00:00 - 17.11.2018 03:00:00 (GMT)
Date & Time tt [°C] td [°C] tt -20cm [°C] tt -100cm [°C] ff [km/h] ff [kn] fx [km/h] fx [kn] dd ppp [hPa] vv [km] sd [min] rr [mm]
17.11.2018 03:00:00 8,6 6,8 - - 8 4 - - E 1028,9 7 0 0,0
17.11.2018 02:00:00 8,3 6,2 - - 8 4 - - ESE 1028,9 9 0 0,0
17.11.2018 01:00:00 8,3 5,8 - - 9 5 - - SE 1028,5 9 0 0,0
17.11.2018 00:00:00 8,5 5,9 - - 9 5 - - SE 1028,3 10 - 0,0
16.11.2018 23:00:00 8,6 6,2 - - 8 4 - - ESE 1028,2 12 0 0,0
16.11.2018 22:00:00 8,7 6,1 - - 11 6 - - ESE 1028,1 10 0 0,0
16.11.2018 21:00:00 8,4 6,4 - - 11 6 - - ESE 1028,0 9 0 0,0
16.11.2018 20:00:00 8,2 6,3 - - 9 5 - - ESE 1027,9 10 0 0,0
16.11.2018 19:00:00 8,4 7,8 - - 9 5 - - ESE 1027,6 6 0 0,0
16.11.2018 18:00:00 9,2 8,8 - - 8 4 - - ESE 1027,1 3,7 0 0,0
16.11.2018 17:00:00 10,0 9,4 - - 8 4 - - E 1026,7 5 0 0,0
16.11.2018 16:00:00 10,3 9,5 - - 8 4 - - ESE 1026,4 5 0 0,0
16.11.2018 15:00:00 10,6 10,0 - - 9 5 - - ESE 1026,4 4,1 0 0,0
16.11.2018 14:00:00 10,8 10,1 - - 11 6 - - ESE 1026,5 1,6 0 0,0
16.11.2018 13:00:00 11,1 10,2 - - 9 5 - - SE 1026,3 4,2 0 0,0
16.11.2018 12:00:00 11,1 10,3 - - 13 7 - - SE 1026,2 4,5 0 0,0
16.11.2018 11:00:00 11,2 10,9 - - 9 5 - - SSE 1025,9 5 0 0,0
16.11.2018 10:00:00 10,4 10,2 - - 9 5 - - SSE 1025,7 1,5 0 0,0
16.11.2018 09:00:00 10,3 10,2 8,7 10,4 9 5 - - SSE 1025,6 1,5 0 0,0
16.11.2018 08:00:00 10,4 10,2 - - 8 4 - - SSE 1025,2 0,3 0 0,0
16.11.2018 07:00:00 10,8 10,5 - - 5 3 - - S 1024,4 1,4 0 0,0
16.11.2018 06:00:00 11,0 10,7 - - 5 3 - - S 1023,6 2,0 0 0,0
16.11.2018 05:00:00 11,1 10,8 - - 8 4 - - SE 1022,9 1,8 0 0,0
16.11.2018 04:00:00 11,3 10,9 - - 4 2 - - SSE 1022,9 1,7 0 0,0
16.11.2018 03:00:00 11,3 10,9 - - 5 3 - - S 1022,6 2,0 0 0,0
16.11.2018 02:00:00 11,5 10,8 - - 8 4 - - SSE 1022,2 2,3 0 0,0
16.11.2018 01:00:00 11,8 11,2 - - 9 5 - - SSE 1021,8 3,1 0 0,0
16.11.2018 00:00:00 11,4 10,7 - - 5 3 - - SE 1021,6 3,1 - 0,0
15.11.2018 23:00:00 11,9 11,1 - - 5 3 - - S 1021,4 4,8 0 0,0
15.11.2018 22:00:00 11,6 11,4 - - 8 4 - - SSW 1020,8 5 0 0,0
15.11.2018 21:00:00 10,6 10,6 - - 5 3 - - S 1020,0 5 0 0,0
15.11.2018 20:00:00 8,3 8,1 - - 9 5 - - SSE 1019,6 2,9 0 0,0
15.11.2018 19:00:00 5,5 5,0 - - 4 2 - - WSW 1019,8 0,3 0 0,0
15.11.2018 18:00:00 5,7 5,0 - - 4 2 - - SE 1019,6 1,0 0 0,0
15.11.2018 17:00:00 7,3 6,1 - - 2 1 - - ESE 1019,2 2,7 0 0,0
15.11.2018 16:00:00 10,3 8,2 - - 8 4 - - SSW 1018,9 10 24 0,0
15.11.2018 15:00:00 11,3 8,6 - - 11 6 - - S 1019,0 10 0 0,0
15.11.2018 14:00:00 11,8 9,1 - - 13 7 - - S 1018,9 10 0 0,0
15.11.2018 13:00:00 12,0 9,4 - - 16 9 - - S 1019,0 11 0 0,0
15.11.2018 12:00:00 11,6 9,2 - - 13 7 - - S 1019,3 15 0 0,0
15.11.2018 11:00:00 11,1 9,2 - - 13 7 - - S 1019,5 11 0 0,0
15.11.2018 10:00:00 10,5 9,6 - - 13 7 - - S 1019,9 8 0 0,0
15.11.2018 09:00:00 8,7 8,5 8,7 10,4 9 5 - - S 1019,8 4,8 12 0,2
15.11.2018 08:00:00 7,6 7,4 - - 8 4 - - S 1019,6 3,4 0 0,0
15.11.2018 07:00:00 6,9 6,7 - - 9 5 - - S 1019,3 3,2 0 0,0
15.11.2018 06:00:00 6,3 6,0 - - 9 5 - - SSW 1019,1 2,0 0 0,0
15.11.2018 05:00:00 6,1 5,7 - - 5 3 - - S 1019,1 2,9 0 0,0
15.11.2018 04:00:00 6,4 5,6 - - 8 4 - - SSW 1019,0 5 0 0,0
15.11.2018 03:00:00 7,1 6,3 - - 15 8 - - SSW 1018,9 8 0 0,0
15.11.2018 02:00:00 7,3 6,4 - - 13 7 - - SSW 1019,0 9 0 0,0
15.11.2018 01:00:00 8,5 7,2 - - 13 7 - - S 1018,9 10 0 0,0
15.11.2018 00:00:00 8,2 6,7 - - 15 8 - - SSW 1019,0 10 - 0,0
14.11.2018 23:00:00 8,5 6,5 - - 18 10 - - SSW 1018,7 10 0 0,0
14.11.2018 22:00:00 8,9 6,6 - - 9 5 - - S 1018,9 27 0 0,0
14.11.2018 21:00:00 10,1 7,2 - - 15 8 - - S 1018,4 25 0 0,0
14.11.2018 20:00:00 10,5 7,9 - - 9 5 - - S 1018,5 10 0 0,0
14.11.2018 19:00:00 10,8 8,0 - - 8 4 - - S 1018,6 26 0 0,0
14.11.2018 18:00:00 11,3 8,0 - - 8 4 - - S 1018,2 35 0 0,0
14.11.2018 17:00:00 12,0 7,9 - - 15 8 - - SSW 1018,0 10 0 0,0
14.11.2018 16:00:00 12,8 8,2 - - 16 9 - - SSW 1017,7 30 6 0,0
14.11.2018 15:00:00 14,3 8,8 - - 22 12 - - SSW 1017,5 10 36 0,0
14.11.2018 14:00:00 14,1 9,2 - - 22 12 - - SSW 1017,3 24 54 0,0
14.11.2018 13:00:00 14,5 9,9 - - 24 13 - - SSW 1017,2 10 60 0,0
14.11.2018 12:00:00 13,7 9,8 - - 18 10 - - SSW 1017,4 10 12 0,0
14.11.2018 11:00:00 12,3 9,2 - - 22 12 - - SW 1017,3 10 0 0,0
14.11.2018 10:00:00 11,7 9,0 - - 22 12 - - SSW 1017,3 10 0 0,0
14.11.2018 09:00:00 10,7 9,1 8,5 10,4 11 6 - - SSW 1017,6 19 0 0,2
14.11.2018 08:00:00 10,2 8,9 - - 15 8 - - S 1017,3 10 0 0,0
14.11.2018 07:00:00 9,8 8,8 - - 15 8 - - S 1017,2 10 0 0,0
14.11.2018 06:00:00 9,7 8,5 - - 15 8 - - S 1017,0 15 0 0,2
14.11.2018 05:00:00 9,3 8,2 - - 11 6 - - S 1017,3 17 0 0,0
14.11.2018 04:00:00 9,4 7,8 - - 13 7 - - S 1017,6 10 0 0,0
14.11.2018 03:00:00 9,0 7,5 - - 15 8 - - S 1018,2 10 0 0,0
14.11.2018 02:00:00 8,9 7,3 - - 15 8 - - S 1019,1 22 0 0,0
14.11.2018 01:00:00 8,9 7,1 - - 11 6 - - S 1020,1 10 0 0,0
14.11.2018 00:00:00 9,5 7,0 - - 11 6 - - S 1020,1 10 - 0,0
13.11.2018 23:00:00 9,5 7,0 - - 13 7 - - S 1020,3 10 0 0,0
13.11.2018 22:00:00 9,0 6,8 - - 11 6 - - S 1020,5 15 0 0,0
13.11.2018 21:00:00 9,9 6,9 - - 18 10 - - SSW 1020,4 10 0 0,0
13.11.2018 20:00:00 10,0 6,6 - - 13 7 - - SSW 1020,5 28 0 0,0
13.11.2018 19:00:00 8,9 5,7 - - 9 5 - - S 1020,3 10 0 0,0
13.11.2018 18:00:00 8,6 5,1 - - 13 7 - - SSW 1020,1 10 0 0,0
13.11.2018 17:00:00 9,0 5,1 - - 13 7 - - SSW 1019,8 30 0 0,0
13.11.2018 16:00:00 9,6 5,6 - - 9 5 - - SSW 1019,1 10 36 0,0
13.11.2018 15:00:00 11,8 5,6 - - 15 8 48 26 SW 1018,5 35 60 0,0
13.11.2018 14:00:00 12,2 6,3 - - 24 13 - - WSW 1017,2 10 48 0,0
13.11.2018 13:00:00 11,7 6,3 - - 28 15 46 25 WSW 1016,6 10 48 0,0
13.11.2018 12:00:00 11,7 6,6 - - 28 15 - - WSW 1015,9 10 60 0,0
13.11.2018 11:00:00 11,3 6,8 - - 24 13 - - WSW 1015,4 10 60 0,0
13.11.2018 10:00:00 10,4 6,5 - - 24 13 - - SW 1014,2 18 60 0,0
13.11.2018 09:00:00 9,6 6,3 8,7 10,5 21 11 - - SW 1013,0 10 36 0,0
13.11.2018 08:00:00 8,2 6,0 - - 16 9 - - SSW 1011,8 10 0 0,0
13.11.2018 07:00:00 7,9 5,8 - - 18 10 - - SW 1010,6 10 0 0,0
13.11.2018 06:00:00 8,1 5,8 - - 21 11 - - SW 1009,4 10 0 0,0
13.11.2018 05:00:00 8,2 5,9 - - 21 11 - - SSW 1008,8 10 0 0,0
13.11.2018 04:00:00 8,0 5,6 - - 15 8 - - SSW 1008,0 10 0 0,0
13.11.2018 03:00:00 7,7 5,5 - - 11 6 - - S 1007,4 10 0 0,0
13.11.2018 02:00:00 8,2 5,8 - - 15 8 - - SSW 1006,9 10 0 0,0
13.11.2018 01:00:00 8,7 5,9 - - 26 14 - - SSW 1006,3 10 0 0,0
13.11.2018 00:00:00 8,9 6,5 - - 16 9 - - S 1006,3 10 - 0,0
12.11.2018 23:00:00 9,1 6,5 - - 18 10 - - S 1006,1 10 0 0,0
12.11.2018 22:00:00 8,8 6,0 - - 11 6 - - S 1006,5 10 0 0,0
12.11.2018 21:00:00 9,3 6,2 - - 15 8 - - S 1006,4 10 0 0,0
12.11.2018 20:00:00 10,0 6,2 - - 13 7 - - S 1006,7 10 0 0,0
12.11.2018 19:00:00 10,0 7,0 - - 9 5 - - S 1006,6 10 0 0,0
12.11.2018 18:00:00 10,9 7,6 - - 16 9 - - SSW 1006,6 21 0 0,0
12.11.2018 17:00:00 11,6 7,7 - - 13 7 - - SSE 1006,0 10 0 0,0
12.11.2018 16:00:00 12,0 7,4 - - 11 6 - - S 1005,7 10 48 0,0
12.11.2018 15:00:00 12,9 7,7 - - 16 9 - - S 1005,3 10 48 0,0
12.11.2018 14:00:00 13,2 7,9 - - 21 11 - - SSW 1005,1 10 48 0,0
12.11.2018 13:00:00 13,2 8,0 - - 18 10 - - SSW 1005,2 16 60 0,0
12.11.2018 12:00:00 12,5 8,2 - - 22 12 - - SSW 1005,5 10 60 0,0
12.11.2018 11:00:00 11,2 8,5 - - 22 12 - - SSW 1005,6 10 60 0,0
12.11.2018 10:00:00 9,8 7,6 - - 21 11 - - SSW 1005,4 10 60 0,0
12.11.2018 09:00:00 8,3 6,9 9,0 10,7 15 8 - - S 1005,3 10 48 0,0
12.11.2018 08:00:00 7,1 6,3 - - 11 6 - - S 1005,0 10 0 0,0
12.11.2018 07:00:00 7,0 6,1 - - 11 6 - - S 1004,4 10 0 0,2
12.11.2018 06:00:00 7,3 6,3 - - 15 8 - - S 1004,0 12 0 0,0
12.11.2018 05:00:00 7,1 6,1 - - 13 7 - - S 1004,2 10 0 0,0
12.11.2018 04:00:00 7,2 6,1 - - 11 6 - - S 1003,9 14 0 0,0
12.11.2018 03:00:00 7,0 5,9 - - 9 5 - - S 1003,6 10 0 0,0
12.11.2018 02:00:00 7,1 5,6 - - 9 5 - - S 1003,7 10 0 0,0
12.11.2018 01:00:00 7,2 5,6 - - 11 6 - - S 1003,3 10 0 0,0
12.11.2018 00:00:00 7,0 5,3 - - 8 4 - - S 1003,1 10 - 0,0
11.11.2018 23:00:00 7,2 5,1 - - 8 4 - - S 1002,6 10 0 0,0
11.11.2018 22:00:00 8,0 5,6 - - 15 8 - - S 1002,2 10 0 0,0
11.11.2018 21:00:00 8,2 5,9 - - 11 6 - - S 1001,7 10 0 0,0
11.11.2018 20:00:00 8,4 5,9 - - 9 5 - - S 1000,9 10 0 0,0
11.11.2018 19:00:00 8,8 6,1 - - 11 6 - - S 1000,4 30 0 0,0
11.11.2018 18:00:00 9,2 5,9 - - 11 6 - - SSW 999,4 40 0 0,0
11.11.2018 17:00:00 9,6 6,2 - - 11 6 - - S 998,2 45 0 0,0
11.11.2018 16:00:00 10,3 6,6 - - 15 8 - - SSW 997,2 10 24 0,0
11.11.2018 15:00:00 11,3 6,9 - - 18 10 - - SW 996,3 10 30 0,0
11.11.2018 14:00:00 11,1 7,4 - - 21 11 - - WSW 995,1 10 12 0,0
11.11.2018 13:00:00 10,0 8,5 - - 21 11 - - SW 993,7 10 0 0,0
11.11.2018 12:00:00 9,2 8,4 - - 13 7 - - S 993,2 10 0 0,2
11.11.2018 11:00:00 9,1 8,4 - - 9 5 - - SSE 993,2 10 0 0,4
11.11.2018 10:00:00 8,5 7,6 - - 8 4 - - SE 993,3 10 0 0,0
11.11.2018 09:00:00 8,5 7,2 9,2 10,7 9 5 - - SSE 993,1 10 0 0,0
11.11.2018 08:00:00 8,5 6,9 - - 8 4 - - S 993,2 17 0 0,0
11.11.2018 07:00:00 8,7 7,2 - - 11 6 - - S 992,8 10 0 0,0
11.11.2018 06:00:00 8,7 7,2 - - 13 7 - - SSW 992,5 10 0 0,0
11.11.2018 05:00:00 9,1 8,0 - - 5 3 - - S 992,5 8 0 0,0
11.11.2018 04:00:00 8,9 7,8 - - 15 8 - - SSW 992,3 8 0 0,0
11.11.2018 03:00:00 8,8 7,9 - - 15 8 - - SSW 992,2 8 0 0,0

tt = temperature
td = dewpoint
tt -20cm = temperature -20cm
tt -100cm = temperature -100cm
ff = wind speed
fx = gusts
dd = wind direction
ppp = reduced air pressure
vv = visibility
sd = sunshine duration
rr = precipitation

Next stations